| time (UTC) | temp F | wind direction | speed MPH | gust MPH | rain 1hr in | rain 24hr in | rain mn in | humidity % | barometer mb |
| 20260903223030 | 76 | 260 | 2.0 | 6.0 | 0.00 | 0.30 | 0.00 | 89 | 1011.8 |
| 20260903221530 | 76 | 202 | 2.0 | 5.0 | 0.00 | 0.30 | 0.00 | 89 | 1011.7 |
| 20260903220029 | 77 | 223 | 1.0 | 5.0 | 0.00 | 0.30 | 0.00 | 87 | 1011.3 |
| 20260903214531 | 77 | 206 | 2.0 | 7.0 | 0.00 | 0.30 | 0.00 | 87 | 1011.4 |
| 20260903213028 | 77 | 215 | 2.0 | 4.0 | 0.00 | 0.30 | 0.00 | 87 | 1011.2 |
| 20260903211527 | 77 | 172 | 2.0 | 5.0 | 0.00 | 0.30 | 0.00 | 86 | 1011.1 |
| 20260903210025 | 77 | 239 | 1.0 | 4.0 | 0.00 | 0.30 | 0.00 | 86 | 1011.3 |
| 20260903204530 | 77 | 223 | 0.0 | 6.0 | 0.00 | 0.30 | 0.00 | 85 | 1011.3 |
| 20260903203024 | 77 | 260 | 2.0 | 7.0 | 0.00 | 0.30 | 0.00 | 85 | 1011.7 |
| 20260903201525 | 78 | 240 | 2.0 | 8.0 | 0.00 | 0.30 | 0.00 | 84 | 1011.9 |
| 20260903200023 | 78 | 203 | 4.0 | 8.0 | 0.00 | 0.30 | 0.00 | 85 | 1012.1 |
| 20260903194523 | 78 | 215 | 3.0 | 9.0 | 0.00 | 0.30 | 0.00 | 85 | 1012.2 |
| 20260903193022 | 78 | 248 | 5.0 | 9.0 | 0.00 | 0.30 | 0.00 | 83 | 1012.2 |
| 20260903191522 | 79 | 201 | 2.0 | 9.0 | 0.00 | 0.30 | 0.00 | 82 | 1012.4 |
| 20260903190025 | 80 | 231 | 2.0 | 8.0 | 0.00 | 0.30 | 0.00 | 81 | 1012.5 |
| 20260903184519 | 79 | 235 | 1.0 | 7.0 | 0.00 | 0.30 | 0.00 | 82 | 1012.3 |
| 20260903183019 | 79 | 257 | 1.0 | 8.0 | 0.00 | 0.30 | 0.00 | 84 | 1012.4 |
| 20260903181518 | 79 | 295 | 2.0 | 14.0 | 0.00 | 0.30 | 0.00 | 82 | 1012.6 |
| 20260903180017 | 79 | 254 | 3.0 | 9.0 | 0.00 | 0.30 | 0.00 | 82 | 1012.6 |
| 20260903174513 | 78 | 256 | 1.0 | 7.0 | 0.00 | 0.30 | 0.00 | 86 | 1012.6 |
| 20260903173010 | 77 | 200 | 2.0 | 10.0 | 0.00 | 0.30 | 0.00 | 85 | 1012.8 |
| 20260903171508 | 77 | 170 | 3.0 | 10.0 | 0.00 | 0.30 | 0.00 | 87 | 1012.9 |
| 20260903170012 | 76 | 256 | 2.0 | 8.0 | 0.00 | 0.30 | 0.00 | 87 | 1012.9 |
| 20260903164504 | 76 | 215 | 1.0 | 5.0 | 0.00 | 0.33 | 0.00 | 89 | 1012.8 |
| 20260903163005 | 75 | 211 | 4.0 | 9.0 | 0.00 | 0.33 | 0.00 | 90 | 1012.9 |
| 20260903161503 | 75 | 246 | 3.0 | 9.0 | 0.00 | 0.33 | 0.00 | 89 | 1013.0 |
| 20260903160003 | 75 | 192 | 1.0 | 8.0 | 0.00 | 0.33 | 0.00 | 89 | 1013.1 |
| 20260903154502 | 76 | 153 | 3.0 | 9.0 | 0.00 | 0.33 | 0.00 | 89 | 1013.0 |
| 20260903153101 | 76 | 198 | 3.0 | 11.0 | 0.00 | 0.33 | 0.00 | 89 | 1013.2 |
| 20260903151559 | 75 | 185 | 4.0 | 10.0 | 0.00 | 0.33 | 0.00 | 88 | 1013.3 |
| 20260903150111 | 75 | 209 | 2.0 | 7.0 | 0.00 | 0.33 | 0.00 | 88 | 1013.3 |
| 20260903144606 | 76 | 175 | 4.0 | 7.0 | 0.00 | 0.33 | 0.00 | 88 | 1013.2 |
| 20260903143057 | 76 | 188 | 4.0 | 10.0 | 0.00 | 0.33 | 0.00 | 87 | 1013.3 |
| 20260903141552 | 75 | 200 | 2.0 | 9.0 | 0.00 | 0.33 | 0.00 | 91 | 1013.2 |
| 20260903140049 | 74 | 178 | 2.0 | 8.0 | 0.00 | 0.33 | 0.00 | 92 | 1013.3 |
| 20260903134553 | 73 | 192 | 2.0 | 10.0 | 0.00 | 0.33 | 0.00 | 93 | 1013.3 |
| 20260903133043 | 73 | 196 | 2.0 | 6.0 | 0.00 | 0.33 | 0.00 | 96 | 1013.4 |
| 20260903131540 | 72 | 246 | 1.0 | 6.0 | 0.00 | 0.33 | 0.00 | 97 | 1013.5 |
| 20260903130037 | 72 | 199 | 0.0 | 4.0 | 0.00 | 0.33 | 0.00 | 98 | 1013.5 |
| 20260903124545 | 71 | 210 | 0.0 | 4.0 | 0.00 | 0.33 | 0.00 | 98 | 1013.5 |
| 20260903123035 | 70 | 211 | 0.0 | 2.0 | 0.00 | 0.33 | 0.00 | 98 | 1013.6 |
| 20260903121530 | 70 | 211 | 0.0 | 2.0 | 0.00 | 0.33 | 0.00 | 98 | 1013.7 |
| 20260903120027 | 69 | 207 | 0.0 | 2.0 | 0.00 | 0.33 | 0.00 | 98 | 1013.6 |
| 20260903114526 | 69 | 277 | 0.0 | 3.0 | 0.00 | 0.33 | 0.00 | 98 | 1013.6 |
| 20260903113022 | 68 | 240 | 0.0 | 3.0 | 0.00 | 0.33 | 0.00 | 97 | 1013.2 |
| 20260903111521 | 68 | 235 | 1.0 | 6.0 | 0.00 | 0.33 | 0.00 | 97 | 1013.1 |
| 20260903110018 | 67 | 210 | 0.0 | 2.0 | 0.00 | 0.33 | 0.00 | 96 | 1013.0 |
| 20260903104516 | 67 | 210 | 0.0 | 1.0 | 0.00 | 0.33 | 0.00 | 96 | 1012.9 |
| 20260903103013 | 68 | 210 | 1.0 | 2.0 | 0.00 | 0.33 | 0.00 | 96 | 1012.6 |
| 20260903101511 | 68 | 210 | 0.0 | 0.0 | 0.00 | 0.33 | 0.00 | 96 | 1012.4 |
| 20260903100010 | 68 | 210 | 0.0 | 1.0 | 0.00 | 0.33 | 0.00 | 96 | 1012.6 |
| 20260903094508 | 68 | 210 | 0.0 | 1.0 | 0.00 | 0.33 | 0.00 | 96 | 1012.4 |
| 20260903093007 | 68 | 210 | 0.0 | 0.0 | 0.00 | 0.33 | 0.00 | 95 | 1012.3 |
| 20260903091511 | 69 | 210 | 0.0 | 2.0 | 0.00 | 0.33 | 0.00 | 95 | 1011.9 |
| 20260903090012 | 69 | 210 | 0.0 | 0.0 | 0.00 | 0.33 | 0.00 | 95 | 1011.8 |
| 20260903084506 | 70 | 210 | 0.0 | 1.0 | 0.00 | 0.33 | 0.00 | 95 | 1012.0 |
| 20260903083001 | 70 | 210 | 0.0 | 1.0 | 0.00 | 0.33 | 0.00 | 95 | 1011.7 |
| 20260903081602 | 70 | 210 | 0.0 | 1.0 | 0.00 | 0.33 | 0.00 | 95 | 1011.7 |
| 20260903080100 | 71 | 210 | 0.0 | 2.0 | 0.00 | 0.33 | 0.00 | 95 | 1011.5 |
| 20260903074605 | 71 | 207 | 0.0 | 3.0 | 0.00 | 0.33 | 0.00 | 95 | 1011.5 |
| 20260903073100 | 71 | 198 | 0.0 | 4.0 | 0.00 | 0.33 | 0.00 | 95 | 1011.4 |
| 20260903071605 | 71 | 262 | 3.0 | 9.0 | 0.00 | 0.33 | 0.00 | 95 | 1011.4 |
| 20260903070053 | 71 | 257 | 2.0 | 6.0 | 0.00 | 0.33 | 0.00 | 95 | 1011.3 |
| 20260903064550 | 71 | 224 | 1.0 | 9.0 | 0.00 | 0.33 | 0.00 | 95 | 1011.7 |
| 20260903063104 | 71 | 179 | 4.0 | 11.0 | 0.00 | 0.33 | 0.00 | 95 | 1012.0 |
| 20260903061553 | 71 | 226 | 4.0 | 11.0 | 0.00 | 0.33 | 0.00 | 95 | 1011.9 |
| 20260903060047 | 71 | 206 | 3.0 | 9.0 | 0.00 | 0.33 | 0.00 | 95 | 1012.0 |
| 20260903054546 | 70 | 233 | 3.0 | 10.0 | 0.00 | 0.33 | 0.00 | 95 | 1011.8 |
| 20260903053106 | 70 | 209 | 3.0 | 10.0 | 0.00 | 0.33 | 0.00 | 94 | 1011.9 |
| 20260903051546 | 70 | 240 | 3.0 | 9.0 | 0.00 | 0.33 | 0.00 | 94 | 1011.9 |
| 20260903050050 | 70 | 192 | 4.0 | 12.0 | 0.00 | 0.33 | 0.00 | 95 | 1012.0 |
| 20260903044551 | 70 | 201 | 6.0 | 12.0 | 0.00 | 0.33 | 0.00 | 95 | 1012.1 |
| 20260903043038 | 70 | 211 | 5.0 | 16.0 | 0.00 | 0.33 | 0.00 | 96 | 1012.2 |
| 20260903041536 | 70 | 205 | 2.0 | 8.0 | 0.00 | 0.33 | 0.00 | 96 | 1011.9 |
| 20260903040037 | 70 | 167 | 3.0 | 8.0 | 0.00 | 0.33 | 0.00 | 96 | 1011.7 |
| 20260903034532 | 70 | 186 | 2.0 | 8.0 | 0.00 | 0.33 | 0.33 | 96 | 1011.5 |
| 20260903033032 | 70 | 182 | 3.0 | 8.0 | 0.00 | 0.33 | 0.33 | 96 | 1011.5 |
| 20260903031534 | 69 | 190 | 2.0 | 6.0 | 0.00 | 0.33 | 0.33 | 96 | 1012.0 |
| 20260903030031 | 69 | 178 | 0.0 | 5.0 | 0.01 | 0.33 | 0.33 | 96 | 1012.5 |
| 20260903024530 | 69 | 186 | 2.0 | 6.0 | 0.01 | 0.33 | 0.33 | 96 | 1012.4 |
| 20260903023030 | 69 | 154 | 1.0 | 8.0 | 0.01 | 0.33 | 0.33 | 96 | 1012.4 |
| 20260903021529 | 69 | 183 | 1.0 | 4.0 | 0.15 | 0.33 | 0.33 | 96 | 1012.8 |
| 20260903020028 | 70 | 198 | 1.0 | 8.0 | 0.15 | 0.32 | 0.32 | 96 | 1012.5 |
| 20260903014527 | 70 | 130 | 3.0 | 9.0 | 0.15 | 0.32 | 0.32 | 96 | 1012.9 |
| 20260903013028 | 69 | 211 | 1.0 | 4.0 | 0.15 | 0.32 | 0.32 | 95 | 1012.8 |
| 20260903011532 | 70 | 202 | 2.0 | 6.0 | 0.00 | 0.17 | 0.17 | 96 | 1013.7 |
| 20260903010025 | 70 | 159 | 1.0 | 3.0 | 0.01 | 0.17 | 0.17 | 95 | 1012.5 |
| 20260903004525 | 70 | 342 | 0.0 | 2.0 | 0.03 | 0.17 | 0.17 | 95 | 1012.0 |
| 20260903003023 | 70 | 342 | 0.0 | 4.0 | 0.04 | 0.17 | 0.17 | 94 | 1010.3 |
| 20260903001524 | 70 | 325 | 1.0 | 6.0 | 0.04 | 0.17 | 0.17 | 94 | 1010.1 |
| 20260903000022 | 71 | 288 | 4.0 | 10.0 | 0.05 | 0.16 | 0.16 | 92 | 1010.8 |
| 20260902234521 | 72 | 336 | 4.0 | 14.0 | 0.11 | 0.14 | 0.14 | 90 | 1011.5 |
| 20260902233021 | 73 | 333 | 3.0 | 16.0 | 0.10 | 0.13 | 0.13 | 86 | 1012.4 |
| 20260902231524 | 75 | 5 | 3.0 | 12.0 | 0.10 | 0.13 | 0.13 | 88 | 1012.5 |
| 20260902230020 | 77 | 229 | 5.0 | 27.0 | 0.08 | 0.11 | 0.11 | 90 | 1012.7 |
| 20260902224518 | 77 | 217 | 2.0 | 7.0 | 0.00 | 0.03 | 0.03 | 89 | 1010.7 |